Aparecida do Rio Negro, Brazil
Current Conditions -  °F | °C
As of 2:00 AM on Sunday 26 Oct 2014 (Local Time) from SBPJ Reporting Station
Broken Clouds Broken Clouds  
Wind Chill: 79°   Ceiling: 10000
Heat Index: 81°   Visibility: 6mi
Dew Point: 70°   Wind: 2mph
Humidity: 74%   Direction: 250°WSW
Pressure: 29.83"   Gusts: NA
Location:  9.95°S, 47.97°W
Report Text: SBPJ 260500Z 25002KT 9999 FEW025 BKN100 26/21 Q1010
Loading
Personal Weather Stations






























Interactive Weather Map
Tropical Storm Tracking
New forecast layout! Learn more

10-Day Weather Forecast

Advertisements
Track Severe Weather on mobile